| time (UTC) | temp C | wind direction | speed KPH | gust KPH | rain 1hr cm | rain 24hr cm | rain mn cm | humidity % | barometer mb |
| 20260505101106 | 17 | 241 | 1.6 | 4.8 | 0.00 | 0.00 | 0.00 | 82 | 995.9 |
| 20260505100606 | 17 | 255 | 1.6 | 4.8 | 0.00 | 0.00 | 0.00 | 80 | 995.8 |
| 20260505100107 | 17 | 238 | 1.6 | 4.8 | 0.00 | 0.00 | 0.00 | 80 | 995.7 |
| 20260505095837 | 17 | 228 | 1.6 | 4.8 | 0.00 | 0.00 | 0.00 | 80 | 995.6 |
| 20260505095100 | 17 | 237 | 1.6 | 3.2 | 0.00 | 0.00 | 0.00 | 79 | 995.5 |
| 20260505094559 | 17 | 233 | 1.6 | 6.4 | 0.00 | 0.00 | 0.00 | 79 | 995.5 |
| 20260505094057 | 17 | 229 | 1.6 | 6.4 | 0.00 | 0.00 | 0.00 | 79 | 995.6 |
| 20260505093556 | 17 | 208 | 1.6 | 8.0 | 0.00 | 0.00 | 0.00 | 79 | 995.7 |
| 20260505093056 | 17 | 229 | 1.6 | 8.0 | 0.00 | 0.00 | 0.00 | 78 | 995.7 |
| 20260505092554 | 17 | 227 | 1.6 | 6.4 | 0.00 | 0.00 | 0.00 | 78 | 995.8 |
| 20260505092052 | 17 | 245 | 1.6 | 6.4 | 0.00 | 0.00 | 0.00 | 78 | 995.7 |
| 20260505091553 | 17 | 230 | 1.6 | 6.4 | 0.00 | 0.00 | 0.00 | 78 | 995.7 |
| 20260505091052 | 17 | 240 | 1.6 | 6.4 | 0.00 | 0.00 | 0.00 | 77 | 995.8 |
| 20260505090553 | 17 | 217 | 1.6 | 6.4 | 0.00 | 0.00 | 0.00 | 77 | 995.8 |
| 20260505090050 | 17 | 251 | 1.6 | 8.0 | 0.00 | 0.00 | 0.00 | 77 | 995.8 |
| 20260505085548 | 17 | 230 | 3.2 | 11.3 | 0.00 | 0.00 | 0.00 | 77 | 995.8 |
| 20260505085048 | 17 | 252 | 4.8 | 11.3 | 0.00 | 0.00 | 0.00 | 76 | 995.8 |
| 20260505084923 | 17 | 155 | 3.2 | 12.9 | 0.00 | 0.00 | 0.00 | 76 | 995.6 |
| 20260505084819 | 17 | 215 | 4.8 | 12.9 | 0.00 | 0.00 | 0.00 | 76 | 995.6 |
| 20260505083548 | 17 | 207 | 4.8 | 11.3 | 0.00 | 0.00 | 0.00 | 76 | 995.6 |
| 20260505083048 | 17 | 218 | 4.8 | 11.3 | 0.00 | 0.00 | 0.00 | 76 | 995.6 |
| 20260505082548 | 17 | 274 | 3.2 | 9.7 | 0.00 | 0.00 | 0.00 | 75 | 995.6 |
| 20260505082312 | 17 | 260 | 4.8 | 9.7 | 0.00 | 0.00 | 0.00 | 75 | 995.6 |
| 20260505081536 | 18 | 241 | 4.8 | 14.5 | 0.00 | 0.00 | 0.00 | 75 | 995.6 |
| 20260505081030 | 18 | 222 | 4.8 | 14.5 | 0.00 | 0.00 | 0.00 | 75 | 995.7 |
| 20260505080524 | 18 | 251 | 6.4 | 14.5 | 0.00 | 0.00 | 0.00 | 75 | 995.7 |
| 20260505080017 | 18 | 260 | 6.4 | 14.5 | 0.00 | 0.00 | 0.00 | 74 | 995.7 |
| 20260505075512 | 18 | 251 | 6.4 | 17.7 | 0.00 | 0.00 | 0.00 | 74 | 995.7 |
| 20260505075005 | 18 | 243 | 8.0 | 17.7 | 0.00 | 0.00 | 0.00 | 74 | 995.6 |
| 20260505074500 | 18 | 207 | 4.8 | 17.7 | 0.00 | 0.00 | 0.00 | 74 | 995.6 |
| 20260505074225 | 18 | 229 | 4.8 | 17.7 | 0.00 | 0.00 | 0.00 | 74 | 995.7 |
| 20260505073447 | 18 | 226 | 4.8 | 17.7 | 0.00 | 0.00 | 0.00 | 74 | 995.5 |
| 20260505072942 | 18 | 238 | 6.4 | 20.9 | 0.00 | 0.00 | 0.00 | 74 | 995.7 |
| 20260505072435 | 18 | 259 | 6.4 | 20.9 | 0.00 | 0.00 | 0.00 | 73 | 995.7 |
| 20260505071930 | 18 | 236 | 4.8 | 17.7 | 0.00 | 0.00 | 0.00 | 73 | 995.7 |
| 20260505071423 | 18 | 257 | 6.4 | 16.1 | 0.00 | 0.00 | 0.00 | 73 | 995.7 |
| 20260505070918 | 18 | 254 | 6.4 | 16.1 | 0.00 | 0.00 | 0.00 | 73 | 995.8 |
| 20260505070412 | 18 | 251 | 6.4 | 16.1 | 0.00 | 0.00 | 0.00 | 73 | 995.8 |
| 20260505065906 | 18 | 253 | 8.0 | 20.9 | 0.00 | 0.00 | 0.00 | 72 | 995.9 |
| 20260505065400 | 18 | 266 | 9.7 | 22.5 | 0.00 | 0.00 | 0.00 | 72 | 996.1 |
| 20260505064853 | 18 | 256 | 8.0 | 22.5 | 0.00 | 0.00 | 0.00 | 72 | 996.1 |
| 20260505064349 | 18 | 250 | 6.4 | 20.9 | 0.00 | 0.00 | 0.00 | 72 | 995.9 |
| 20260505063841 | 18 | 188 | 8.0 | 20.9 | 0.00 | 0.00 | 0.00 | 72 | 996.3 |
| 20260505063336 | 18 | 248 | 9.7 | 20.9 | 0.00 | 0.00 | 0.00 | 72 | 996.3 |
| 20260505062829 | 18 | 286 | 8.0 | 20.9 | 0.00 | 0.00 | 0.00 | 72 | 996.3 |
| 20260505062324 | 18 | 264 | 6.4 | 20.9 | 0.00 | 0.00 | 0.00 | 72 | 996.5 |
| 20260505061818 | 18 | 237 | 8.0 | 19.3 | 0.00 | 0.00 | 0.00 | 72 | 996.7 |
| 20260505061312 | 18 | 248 | 8.0 | 20.9 | 0.00 | 0.00 | 0.00 | 72 | 996.9 |
| 20260505060806 | 18 | 249 | 6.4 | 20.9 | 0.00 | 0.00 | 0.00 | 72 | 997.0 |
| 20260505060259 | 18 | 267 | 6.4 | 22.5 | 0.00 | 0.00 | 0.00 | 71 | 996.9 |
| 20260505055754 | 18 | 262 | 8.0 | 22.5 | 0.00 | 0.00 | 0.00 | 71 | 996.9 |
| 20260505055247 | 18 | 266 | 8.0 | 20.9 | 0.00 | 0.00 | 0.00 | 71 | 997.0 |
| 20260505054749 | 18 | 247 | 6.4 | 20.9 | 0.00 | 0.00 | 0.00 | 71 | 996.9 |
| 20260505054516 | 18 | 245 | 6.4 | 14.5 | 0.00 | 0.00 | 0.00 | 71 | 997.0 |
| 20260505053746 | 19 | 245 | 6.4 | 17.7 | 0.00 | 0.00 | 0.00 | 71 | 997.0 |
| 20260505053251 | 19 | 246 | 4.8 | 16.1 | 0.00 | 0.00 | 0.00 | 70 | 997.1 |
| 20260505053247 | 19 | 242 | 6.4 | 17.7 | 0.00 | 0.00 | 0.00 | 70 | 997.2 |
| 20260505052245 | 19 | 276 | 4.8 | 16.1 | 0.00 | 0.00 | 0.00 | 70 | 997.1 |
| 20260505051750 | 19 | 225 | 6.4 | 14.5 | 0.00 | 0.00 | 0.00 | 70 | 997.1 |
| 20260505051746 | 19 | 265 | 6.4 | 14.5 | 0.00 | 0.00 | 0.00 | 70 | 997.2 |
| 20260505050746 | 19 | 252 | 4.8 | 12.9 | 0.00 | 0.00 | 0.00 | 69 | 997.0 |
| 20260505050245 | 19 | 257 | 4.8 | 12.9 | 0.00 | 0.00 | 0.00 | 69 | 997.1 |
| 20260505041739 | 20 | 243 | 3.2 | 11.3 | 0.00 | 0.00 | 0.00 | 68 | 997.4 |
| 20260505041238 | 20 | 226 | 3.2 | 11.3 | 0.00 | 0.00 | 0.00 | 68 | 997.4 |
| 20260505041010 | 20 | 252 | 3.2 | 12.9 | 0.00 | 0.00 | 0.00 | 68 | 997.5 |
| 20260505040239 | 20 | 226 | 4.8 | 12.9 | 0.00 | 0.00 | 0.00 | 68 | 997.4 |
| 20260505035738 | 20 | 243 | 4.8 | 12.9 | 0.00 | 0.00 | 0.00 | 68 | 997.4 |
| 20260505035234 | 20 | 262 | 4.8 | 12.9 | 0.00 | 0.00 | 0.00 | 68 | 997.6 |
| 20260505034735 | 20 | 257 | 4.8 | 12.9 | 0.00 | 0.00 | 0.00 | 67 | 997.6 |
| 20260505034505 | 20 | 252 | 4.8 | 11.3 | 0.00 | 0.00 | 0.00 | 67 | 997.6 |
| 20260505033735 | 20 | 255 | 6.4 | 16.1 | 0.00 | 0.00 | 0.00 | 67 | 997.6 |
| 20260505033234 | 20 | 237 | 4.8 | 16.1 | 0.00 | 0.00 | 0.00 | 67 | 997.5 |
| 20260505032735 | 20 | 243 | 3.2 | 12.9 | 0.00 | 0.00 | 0.00 | 67 | 997.5 |
| 20260505032234 | 20 | 249 | 3.2 | 9.7 | 0.00 | 0.00 | 0.00 | 67 | 997.5 |
| 20260505031734 | 20 | 257 | 3.2 | 8.0 | 0.00 | 0.00 | 0.00 | 67 | 997.3 |
| 20260505031232 | 20 | 252 | 4.8 | 19.3 | 0.00 | 0.00 | 0.00 | 67 | 997.4 |
| 20260505030730 | 20 | 231 | 4.8 | 19.3 | 0.00 | 0.00 | 0.00 | 66 | 997.3 |
| 20260505030231 | 20 | 243 | 3.2 | 12.9 | 0.00 | 0.00 | 0.00 | 66 | 997.3 |
| 20260505025729 | 20 | 262 | 3.2 | 11.3 | 0.00 | 0.00 | 0.00 | 66 | 997.2 |
| 20260505025223 | 20 | 219 | 3.2 | 11.3 | 0.00 | 0.00 | 0.00 | 66 | 997.3 |
| 20260505024715 | 20 | 243 | 3.2 | 11.3 | 0.00 | 0.00 | 0.00 | 66 | 997.2 |
| 20260505024217 | 21 | 225 | 3.2 | 11.3 | 0.00 | 0.00 | 0.00 | 65 | 997.1 |
| 20260505023717 | 21 | 224 | 3.2 | 8.0 | 0.00 | 0.00 | 0.00 | 65 | 997.2 |
| 20260505023214 | 21 | 216 | 3.2 | 9.7 | 0.00 | 0.00 | 0.00 | 64 | 997.0 |
| 20260505022943 | 21 | 250 | 3.2 | 12.9 | 0.00 | 0.00 | 0.00 | 64 | 997.0 |
| 20260505022212 | 21 | 217 | 4.8 | 14.5 | 0.00 | 0.00 | 0.00 | 64 | 997.0 |
| 20260505021712 | 21 | 224 | 4.8 | 14.5 | 0.00 | 0.00 | 0.00 | 63 | 996.9 |
| 20260505021212 | 21 | 252 | 4.8 | 11.3 | 0.00 | 0.00 | 0.00 | 63 | 996.8 |
| 20260505020710 | 21 | 243 | 4.8 | 11.3 | 0.00 | 0.00 | 0.00 | 63 | 996.7 |
| 20260505020211 | 21 | 254 | 3.2 | 11.3 | 0.00 | 0.00 | 0.00 | 63 | 996.8 |
| 20260505015710 | 21 | 260 | 3.2 | 9.7 | 0.00 | 0.00 | 0.00 | 62 | 996.8 |
| 20260505015208 | 21 | 245 | 3.2 | 11.3 | 0.00 | 0.00 | 0.00 | 62 | 996.7 |
| 20260505014708 | 22 | 283 | 3.2 | 11.3 | 0.00 | 0.00 | 0.00 | 62 | 996.6 |
| 20260505014209 | 22 | 227 | 3.2 | 9.7 | 0.00 | 0.00 | 0.00 | 61 | 996.6 |
| 20260505013706 | 22 | 246 | 4.8 | 12.9 | 0.00 | 0.00 | 0.00 | 60 | 996.5 |
| 20260505013207 | 22 | 252 | 4.8 | 12.9 | 0.00 | 0.00 | 0.00 | 60 | 996.5 |
| 20260505012707 | 22 | 236 | 4.8 | 17.7 | 0.00 | 0.00 | 0.00 | 60 | 996.5 |
| 20260505012205 | 22 | 214 | 6.4 | 22.5 | 0.00 | 0.00 | 0.00 | 59 | 996.3 |
| 20260505011700 | 22 | 254 | 6.4 | 22.5 | 0.00 | 0.00 | 0.00 | 59 | 996.3 |
| 20260505011154 | 22 | 221 | 6.4 | 20.9 | 0.00 | 0.00 | 0.00 | 59 | 996.2 |
| 20260505010648 | 23 | 264 | 6.4 | 16.1 | 0.00 | 0.00 | 0.00 | 59 | 996.1 |
| 20260505010142 | 23 | 232 | 6.4 | 16.1 | 0.00 | 0.00 | 0.00 | 58 | 996.1 |
| 20260505005907 | 23 | 288 | 8.0 | 14.5 | 0.00 | 0.00 | 0.00 | 58 | 996.1 |
| 20260505005129 | 23 | 257 | 6.4 | 16.1 | 0.00 | 0.00 | 0.00 | 58 | 996.1 |
| 20260505004624 | 23 | 175 | 6.4 | 17.7 | 0.00 | 0.00 | 0.00 | 58 | 996.1 |
| 20260505004118 | 23 | 255 | 6.4 | 17.7 | 0.00 | 0.00 | 0.00 | 57 | 996.1 |
| 20260505003611 | 23 | 296 | 6.4 | 20.9 | 0.00 | 0.00 | 0.00 | 56 | 996.1 |
| 20260505003336 | 24 | 236 | 8.0 | 20.9 | 0.00 | 0.00 | 0.00 | 56 | 996.0 |
| 20260505003101 | 24 | 234 | 9.7 | 20.9 | 0.00 | 0.00 | 0.00 | 55 | 996.0 |
| 20260505002053 | 24 | 245 | 9.7 | 20.9 | 0.00 | 0.00 | 0.00 | 54 | 996.0 |
| 20260505001547 | 25 | 213 | 11.3 | 24.1 | 0.00 | 0.00 | 0.00 | 53 | 995.9 |
| 20260505001543 | 25 | 281 | 9.7 | 24.1 | 0.00 | 0.00 | 0.00 | 53 | 995.8 |
| 20260505000536 | 25 | 274 | 8.0 | 19.3 | 0.00 | 0.00 | 0.00 | 52 | 995.9 |
| 20260505000029 | 25 | 304 | 8.0 | 19.3 | 0.00 | 0.00 | 0.00 | 52 | 995.9 |
| 20260504235524 | 25 | 241 | 9.7 | 24.1 | 0.00 | 0.00 | 0.00 | 52 | 995.9 |
| 20260504235018 | 25 | 308 | 9.7 | 30.6 | 0.00 | 0.00 | 0.00 | 51 | 995.9 |
| 20260504234511 | 25 | 210 | 9.7 | 30.6 | 0.00 | 0.00 | 0.00 | 51 | 996.0 |
| 20260504234237 | 25 | 226 | 12.9 | 29.0 | 0.00 | 0.00 | 0.00 | 51 | 996.0 |
| 20260504233459 | 25 | 256 | 11.3 | 35.4 | 0.00 | 0.00 | 0.00 | 51 | 996.1 |
| 20260504232953 | 26 | 222 | 9.7 | 29.0 | 0.00 | 0.00 | 0.00 | 51 | 996.2 |
| 20260504232447 | 26 | 243 | 8.0 | 24.1 | 0.00 | 0.00 | 0.00 | 51 | 996.1 |
| 20260504231941 | 26 | 242 | 11.3 | 29.0 | 0.00 | 0.00 | 0.00 | 51 | 996.2 |
| 20260504231436 | 26 | 354 | 11.3 | 29.0 | 0.00 | 0.00 | 0.00 | 51 | 996.2 |
| 20260504230929 | 26 | 220 | 11.3 | 27.4 | 0.00 | 0.00 | 0.00 | 50 | 996.3 |
| 20260504230655 | 26 | 250 | 11.3 | 30.6 | 0.00 | 0.00 | 0.00 | 49 | 996.3 |
| 20260504225922 | 26 | 251 | 9.7 | 30.6 | 0.00 | 0.00 | 0.00 | 49 | 996.3 |
| 20260504225422 | 26 | 284 | 8.0 | 22.5 | 0.00 | 0.00 | 0.00 | 49 | 996.3 |
| 20260504224922 | 27 | 217 | 6.4 | 20.9 | 0.00 | 0.00 | 0.00 | 49 | 996.3 |
| 20260504224653 | 27 | 282 | 8.0 | 20.9 | 0.00 | 0.00 | 0.00 | 49 | 996.3 |
| 20260504223922 | 26 | 275 | 11.3 | 29.0 | 0.00 | 0.00 | 0.00 | 51 | 996.3 |
| 20260504223423 | 26 | 270 | 12.9 | 30.6 | 0.00 | 0.00 | 0.00 | 50 | 996.3 |
| 20260504223153 | 26 | 209 | 11.3 | 30.6 | 0.00 | 0.00 | 0.00 | 50 | 996.4 |
| 20260504222422 | 26 | 242 | 11.3 | 27.4 | 0.00 | 0.00 | 0.00 | 49 | 996.4 |
| 20260504221921 | 26 | 219 | 12.9 | 27.4 | 0.00 | 0.00 | 0.00 | 49 | 996.5 |
| 20260504221653 | 26 | 181 | 14.5 | 30.6 | 0.00 | 0.00 | 0.00 | 49 | 996.5 |
| 20260504221153 | 26 | 241 | 12.9 | 30.6 | 0.00 | 0.00 | 0.00 | 49 | 996.5 |
| 20260504220653 | 26 | 253 | 11.3 | 27.4 | 0.00 | 0.00 | 0.00 | 49 | 996.5 |
| 20260504215922 | 27 | 253 | 11.3 | 32.2 | 0.00 | 0.00 | 0.00 | 49 | 996.6 |
| 20260504215652 | 27 | 250 | 12.9 | 32.2 | 0.00 | 0.00 | 0.00 | 49 | 996.5 |
| 20260504214923 | 27 | 293 | 11.3 | 30.6 | 0.00 | 0.00 | 0.00 | 48 | 996.6 |
| 20260504214422 | 27 | 252 | 6.4 | 22.5 | 0.00 | 0.00 | 0.00 | 49 | 996.6 |
| 20260504213921 | 27 | 344 | 8.0 | 22.5 | 0.00 | 0.00 | 0.00 | 48 | 996.5 |
| 20260504213422 | 27 | 252 | 9.7 | 29.0 | 0.00 | 0.00 | 0.00 | 49 | 996.6 |
| 20260504212922 | 26 | 256 | 11.3 | 29.0 | 0.00 | 0.00 | 0.00 | 50 | 996.6 |
| 20260504212422 | 27 | 235 | 11.3 | 27.4 | 0.00 | 0.00 | 0.00 | 48 | 996.7 |
| 20260504211926 | 27 | 242 | 12.9 | 32.2 | 0.00 | 0.00 | 0.00 | 50 | 996.8 |
| 20260504211922 | 27 | 241 | 11.3 | 30.6 | 0.00 | 0.00 | 0.00 | 47 | 996.7 |
| 20260504210920 | 26 | 246 | 14.5 | 32.2 | 0.00 | 0.00 | 0.00 | 48 | 996.7 |
| 20260504210420 | 27 | 288 | 12.9 | 32.2 | 0.00 | 0.00 | 0.00 | 48 | 996.7 |
| 20260504205920 | 27 | 159 | 9.7 | 24.1 | 0.00 | 0.00 | 0.00 | 48 | 996.8 |
| 20260504205419 | 27 | 270 | 11.3 | 33.8 | 0.00 | 0.00 | 0.00 | 48 | 996.7 |
| 20260504204919 | 27 | 233 | 12.9 | 33.8 | 0.00 | 0.00 | 0.00 | 49 | 996.9 |
| 20260504204654 | 27 | 254 | 8.0 | 25.7 | 0.00 | 0.00 | 0.00 | 48 | 997.1 |
| 20260504204420 | 27 | 282 | 12.9 | 27.4 | 0.00 | 0.00 | 0.00 | 48 | 997.0 |
| 20260504203420 | 27 | 300 | 9.7 | 30.6 | 0.00 | 0.00 | 0.00 | 49 | 997.2 |
| 20260504202920 | 27 | 243 | 14.5 | 38.6 | 0.00 | 0.00 | 0.00 | 49 | 997.1 |
| 20260504202648 | 27 | 237 | 12.9 | 38.6 | 0.00 | 0.00 | 0.00 | 48 | 997.3 |
| 20260504202148 | 27 | 244 | 11.3 | 30.6 | 0.00 | 0.00 | 0.00 | 50 | 997.3 |
| 20260504201419 | 27 | 248 | 9.7 | 30.6 | 0.00 | 0.00 | 0.00 | 45 | 997.5 |
| 20260504200917 | 27 | 63 | 9.7 | 29.0 | 0.00 | 0.00 | 0.00 | 48 | 997.6 |
| 20260504200417 | 27 | 239 | 11.3 | 29.0 | 0.00 | 0.00 | 0.00 | 47 | 997.7 |
| 20260504195918 | 27 | 276 | 11.3 | 27.4 | 0.00 | 0.00 | 0.00 | 48 | 997.8 |
| 20260504195649 | 27 | 276 | 11.3 | 27.4 | 0.00 | 0.00 | 0.00 | 48 | 997.7 |
| 20260504194918 | 27 | 221 | 12.9 | 33.8 | 0.00 | 0.00 | 0.00 | 48 | 997.8 |
| 20260504194418 | 27 | 279 | 12.9 | 35.4 | 0.00 | 0.00 | 0.00 | 48 | 997.9 |
| 20260504194144 | 27 | 230 | 12.9 | 32.2 | 0.00 | 0.00 | 0.00 | 49 | 997.9 |
| 20260504193414 | 26 | 257 | 12.9 | 33.8 | 0.00 | 0.00 | 0.00 | 48 | 998.0 |
| 20260504192913 | 27 | 229 | 9.7 | 33.8 | 0.00 | 0.00 | 0.00 | 48 | 998.0 |
| 20260504192414 | 27 | 67 | 11.3 | 27.4 | 0.00 | 0.00 | 0.00 | 51 | 998.1 |
| 20260504191913 | 27 | 205 | 12.9 | 30.6 | 0.00 | 0.00 | 0.00 | 47 | 998.2 |
| 20260504191413 | 27 | 242 | 11.3 | 32.2 | 0.00 | 0.00 | 0.00 | 45 | 998.3 |
| 20260504190914 | 27 | 285 | 11.3 | 32.2 | 0.00 | 0.00 | 0.00 | 45 | 998.2 |
| 20260504190413 | 26 | 278 | 14.5 | 33.8 | 0.00 | 0.00 | 0.00 | 48 | 998.2 |
| 20260504185914 | 26 | 285 | 16.1 | 38.6 | 0.00 | 0.00 | 0.00 | 49 | 998.2 |
| 20260504185411 | 26 | 214 | 16.1 | 38.6 | 0.00 | 0.00 | 0.00 | 46 | 998.1 |
| 20260504184909 | 26 | 269 | 14.5 | 32.2 | 0.00 | 0.00 | 0.00 | 48 | 998.3 |
| 20260504184409 | 26 | 236 | 14.5 | 43.5 | 0.00 | 0.00 | 0.00 | 48 | 998.4 |
| 20260504183909 | 26 | 238 | 12.9 | 43.5 | 0.00 | 0.00 | 0.00 | 47 | 998.3 |
| 20260504183407 | 27 | 335 | 11.3 | 32.2 | 0.00 | 0.00 | 0.00 | 46 | 998.4 |
| 20260504182907 | 27 | 294 | 11.3 | 27.4 | 0.00 | 0.00 | 0.00 | 46 | 998.4 |
| 20260504182636 | 27 | 283 | 14.5 | 35.4 | 0.00 | 0.00 | 0.00 | 46 | 998.5 |
| 20260504181906 | 26 | 283 | 14.5 | 35.4 | 0.00 | 0.00 | 0.00 | 48 | 998.5 |
| 20260504181406 | 26 | 276 | 14.5 | 35.4 | 0.00 | 0.00 | 0.00 | 48 | 998.5 |
| 20260504181136 | 26 | 246 | 17.7 | 35.4 | 0.00 | 0.00 | 0.00 | 51 | 998.7 |
| 20260504180635 | 26 | 291 | 17.7 | 37.0 | 0.00 | 0.00 | 0.00 | 49 | 998.8 |
| 20260504175905 | 26 | 241 | 14.5 | 37.0 | 0.00 | 0.00 | 0.00 | 50 | 998.9 |
| 20260504175636 | 26 | 236 | 14.5 | 40.2 | 0.00 | 0.00 | 0.00 | 49 | 998.9 |
| 20260504175130 | 26 | 252 | 14.5 | 40.2 | 0.00 | 0.00 | 0.00 | 49 | 998.9 |
| 20260504174354 | 26 | 200 | 11.3 | 32.2 | 0.00 | 0.00 | 0.00 | 49 | 998.9 |
| 20260504173852 | 27 | 277 | 9.7 | 32.2 | 0.00 | 0.00 | 0.00 | 49 | 998.9 |
| 20260504173351 | 26 | 302 | 9.7 | 33.8 | 0.00 | 0.00 | 0.00 | 50 | 999.0 |
| 20260504172851 | 26 | 276 | 12.9 | 45.1 | 0.00 | 0.00 | 0.00 | 51 | 999.1 |
| 20260504172625 | 26 | 282 | 11.3 | 33.8 | 0.00 | 0.00 | 0.00 | 46 | 999.2 |
| 20260504172349 | 26 | 237 | 14.5 | 45.1 | 0.00 | 0.00 | 0.00 | 49 | 999.2 |
| 20260504171349 | 26 | 243 | 12.9 | 33.8 | 0.00 | 0.00 | 0.00 | 47 | 999.1 |
| 20260504170850 | 26 | 273 | 16.1 | 33.8 | 0.00 | 0.00 | 0.00 | 48 | 999.2 |
| 20260504170347 | 26 | 67 | 14.5 | 33.8 | 0.00 | 0.00 | 0.00 | 47 | 999.3 |
| 20260504160329 | 26 | 258 | 11.3 | 40.2 | 0.00 | 0.00 | 0.00 | 48 | 999.9 |
| 20260504150723 | 23 | 226 | 8.0 | 19.3 | 0.00 | 0.00 | 0.00 | 57 | 1000.5 |
| 20260504150448 | 23 | 125 | 6.4 | 19.3 | 0.00 | 0.00 | 0.00 | 56 | 1000.4 |
| 20260504141116 | 21 | 200 | 4.8 | 14.5 | 0.00 | 0.00 | 0.00 | 63 | 1000.9 |
| 20260504140611 | 21 | 283 | 4.8 | 14.5 | 0.00 | 0.00 | 0.00 | 65 | 1000.9 |
| 20260504140105 | 21 | 255 | 4.8 | 14.5 | 0.00 | 0.00 | 0.00 | 64 | 1000.9 |
| 20260504130541 | 17 | 248 | 1.6 | 8.0 | 0.00 | 0.00 | 0.00 | 79 | 1000.9 |
| 20260504130537 | 17 | 250 | 3.2 | 8.0 | 0.00 | 0.00 | 0.00 | 77 | 1000.8 |
| 20260504110456 | 13 | 262 | 1.6 | 4.8 | 0.00 | 0.00 | 0.00 | 86 | 1000.1 |